RESURS-DK 1

Last updated on Fri Sep 19 2025 00:02:15 GMT+0000 (Coordinated Universal Time)

1 29228U 06021A 25261.14661065 .00002029 00000+0 12599-3 0 9998 2 29228 69.9350 322.9177 0004730 342.4038 17.6963 15.11440244 61449
UTC large
Height (km)
Speed (km/s)
/
Latitude / Longitude
Inclination (degrees)
Orbital Period (minutes)
Azimuth
Elevation
Range (km)
Doppler Factor

Next 0 passes for location: London (51.5072 / 0.1276)

Sorry there are no passes over London.